Location: Shepherdstown, WV
(39.4326°N, 77.8042°W)
Time: 04:13:13
(UTC-04:00)

Vanguard 1 - Pass Details

Date: 01 October 2021
Orbit: 653 x 3829 km, 34.2° (Epoch: 18 October)

Event Time Altitude Azimuth Distance (km) Brightness Sun altitude
Rises 23:27:32 0° 281° (W) 6,612 14.7 -48.5°
Reaches altitude 10° 23:31:27 10° 278° (W) 5,924 14.3 -48.9°
Enters shadow 23:47:40 55° 231° (SW) 4,209 12.9 -50.6°
